Regional Weather Roundup
Issued by NWS

Home | Current Version | Previous Version | Graphics & Text | Print | Product List | Glossary On
Versions: 1 2 3 4 5 6 7 8 9 10 11 12 13 14 15 16 17 18 19 20 21 22 23 24 25 26 27 28 29 30 31 32 33 34 35 36 37 38 39 40 41 42 43 44 45 46 47 48 49 50
790
ASUS43 KIND 041859
RWRIN

WEATHER ROUNDUP FOR INDIANA
NATIONAL WEATHER SERVICE INDIANAPOLIS IN
300 PM EDT WED MAY 04 2016

NOTE: "FAIR" INDICATES FEW OR NO CLOUDS BELOW 12,000 FEET WITH NO
SIGNIFICANT WEATHER AND/OR OBSTRUCTIONS TO VISIBILITY.

* - STATION DOES NOT REPORT WEATHER SUCH AS PRECIPITATION OR FOG.

+ - STATION NOT QUALITY CONTROLLED BY THE NATIONAL WEATHER SERVICE.
    USE DATA WITH CAUTION...ESPECIALLY DEWPOINT AND RELATIVE
    HUMIDITY OBSERVATIONS.

INZ001>003-010>013-019-020-042000-
NORTHWEST INDIANA

CITY           SKY/WX    TMP DP  RH WIND       PRES   REMARKS
GARY /AIRPORT/ CLOUDY    48  43  81 N20G35    29.80R
RENSSELAER +   CLOUDY    52  41  66 N20G25    29.77R

$$

LMZ046-743>745-042000-
SOUTHERN LAKE MICHIGAN

STATION/POSITION TIME  TEMP    WIND        PRES    WAVE
                       AIR SEA DIR/SP/G            HT
                 (UTC) (F)     (DEG/KT/KT) (MB)    (FT)
BURNS HARBOR     1807   44     340/ 21     1008.8R
MICHIGAN CITY    1800   43     330/ 33/ 35   N/A

$$

INZ004-005-014>016-021>024-042000-
NORTH CENTRAL INDIANA

CITY           SKY/WX    TMP DP  RH WIND       PRES   REMARKS
ELKHART        CLOUDY    45  41  87 NW17G28   29.70R
GOSHEN         CLOUDY    45  39  79 NW18G26   29.68R
SOUTH BEND     CLOUDY    44  37  76 N28G36    29.73R

$$

INZ006>009-017-018-025>027-042000-
NORTHEAST INDIANA

CITY           SKY/WX    TMP DP  RH WIND       PRES   REMARKS
ANGOLA *+      CLOUDY    46  37  71 W15       29.62R
FORT WAYNE     CLOUDY    49  42  77 W16G24    29.66R

$$

INZ028-029-035-036-043>045-051>053-042000-
WEST CENTRAL INDIANA

CITY           SKY/WX    TMP DP  RH WIND       PRES   REMARKS
CRAWFORDSVL +  CLOUDY    52  44  73 NW13      29.75R
GREENCASTLE +  PTSUNNY   54  43  66 N12G21    29.74S
LAFAYETTE      CLOUDY    53  39  59 N23G29    29.75R
TERRE HAUTE    PTSUNNY   59  41  51 NW17      29.75R

$$

INZ030>032-037>040-046>048-054>057-064-065-042000-
CENTRAL INDIANA

CITY           SKY/WX    TMP DP  RH WIND       PRES   REMARKS
INDIANAPOLIS   PTSUNNY   53  40  61 NW20G31   29.73R
-EAGLE CREEK   PTSUNNY   55  40  56 NW21G30   29.73R
KOKOMO *+      CLOUDY    50  37  62 NW23G29   29.71S
SHELBYVILLE    MOSUNNY   60  42  51 NW17G29   29.69R

$$

INZ033-034-041-042-049-050-058-059-042000-
EAST CENTRAL INDIANA

CITY           SKY/WX    TMP DP  RH WIND       PRES   REMARKS
MUNCIE         CLOUDY    52  41  66 NW20G28   29.69R

$$

INZ060-061-067>069-081>083-085>088-042000-
SOUTHWEST INDIANA

CITY           SKY/WX    TMP DP  RH WIND       PRES   REMARKS
EVANSVILLE     PTSUNNY   63  45  51 N10G26    29.74R
HUNTINGBURG *+ PTSUNNY   61  50  67 N12G18    29.71S THUNDER

$$

INZ062-063-066-070>080-084-089>092-042000-
SOUTH CENTRAL AND SOUTHEAST INDIANA

CITY           SKY/WX    TMP DP  RH WIND       PRES   REMARKS
BLOOMINGTON    MOSUNNY   60  42  51 N15G22    29.71R
MADISON *+     PTSUNNY   52  46  82 NW3       29.71R
SEYMOUR +      CLOUDY    57  50  77 CALM      29.69F

$$





USA.gov is the U.S. government's official web portal to all federal, state and local government web resources and services.